Time,TemperatureF,DewpointF,PressureIn,WindDirection,WindDirectionDegrees,WindSpeedMPH,WindSpeedGustMPH,Humidity,HourlyPrecipIn,Conditions,Clouds,dailyrainin,SoftwareType,DateUTC
2013-07-27 00:08:00,66.6,62.6,29.98,WNW,286,0.0,0.0,87,0.00,,,0.00,Wunderground v.1.15,2013-07-27 04:08:00,
2013-07-27 00:19:00,66.7,62.7,29.98,WNW,286,0.0,0.0,87,0.00,,,0.00,Wunderground v.1.15,2013-07-27 04:19:00,
2013-07-27 00:29:00,66.7,63.0,29.97,WNW,286,0.0,0.0,88,0.00,,,0.00,Wunderground v.1.15,2013-07-27 04:29:00,
2013-07-27 00:39:00,66.6,62.6,29.97,WNW,286,0.0,0.0,87,0.00,,,0.00,Wunderground v.1.15,2013-07-27 04:39:00,
2013-07-27 00:49:00,66.7,62.7,29.97,WNW,286,0.0,0.0,87,0.00,,,0.00,Wunderground v.1.15,2013-07-27 04:49:00,
2013-07-27 00:58:00,66.6,62.6,29.97,WNW,286,0.0,0.0,87,0.00,,,0.00,Wunderground v.1.15,2013-07-27 04:58:00,
2013-07-27 01:08:00,66.6,62.9,29.96,WNW,286,0.0,0.0,88,0.00,,,0.00,Wunderground v.1.15,2013-07-27 05:08:00,
2013-07-27 01:19:00,66.6,62.6,29.96,WNW,286,0.0,0.0,87,0.00,,,0.00,Wunderground v.1.15,2013-07-27 05:19:00,
2013-07-27 01:28:00,66.7,62.4,29.96,WNW,286,0.0,0.0,86,0.00,,,0.00,Wunderground v.1.15,2013-07-27 05:28:00,
2013-07-27 01:38:00,66.7,62.0,29.96,WNW,286,0.0,0.0,85,0.00,,,0.00,Wunderground v.1.15,2013-07-27 05:38:00,
2013-07-27 01:49:00,67.0,62.3,29.96,WNW,286,0.0,0.0,85,0.00,,,0.00,Wunderground v.1.15,2013-07-27 05:49:00,
2013-07-27 01:58:00,67.1,62.4,29.96,SW,229,1.0,1.0,85,0.00,,,0.00,Wunderground v.1.15,2013-07-27 05:58:00,
2013-07-27 02:09:00,67.1,62.4,29.96,SW,229,0.0,0.0,85,0.00,,,0.00,Wunderground v.1.15,2013-07-27 06:09:00,
2013-07-27 02:19:00,67.0,62.3,29.96,SW,214,1.0,2.0,85,0.00,,,0.00,Wunderground v.1.15,2013-07-27 06:19:00,
2013-07-27 02:29:00,66.8,62.5,29.96,SW,236,1.0,1.0,86,0.00,,,0.00,Wunderground v.1.15,2013-07-27 06:29:00,
2013-07-27 02:38:00,66.5,61.8,29.96,WSW,245,1.0,1.0,85,0.00,,,0.00,Wunderground v.1.15,2013-07-27 06:38:00,
2013-07-27 02:49:00,65.9,61.3,29.96,SW,233,2.0,2.0,85,0.00,,,0.01,Wunderground v.1.15,2013-07-27 06:49:00,
2013-07-27 02:59:00,65.2,61.2,29.96,WSW,238,1.0,1.0,87,0.13,,,0.03,Wunderground v.1.15,2013-07-27 06:59:00,
2013-07-27 03:09:00,64.5,61.2,29.95,WSW,238,0.0,0.0,89,0.12,,,0.05,Wunderground v.1.15,2013-07-27 07:09:00,
2013-07-27 03:19:00,64.1,61.1,29.95,WSW,238,0.0,0.0,90,0.26,,,0.09,Wunderground v.1.15,2013-07-27 07:19:00,
2013-07-27 03:29:00,63.9,61.2,29.95,WSW,238,0.0,0.0,91,0.23,,,0.11,Wunderground v.1.15,2013-07-27 07:29:00,
2013-07-27 03:39:00,63.7,61.3,29.95,WSW,238,0.0,1.0,92,0.28,,,0.15,Wunderground v.1.15,2013-07-27 07:39:00,
2013-07-27 03:49:00,63.7,61.3,29.95,WSW,238,0.0,0.0,92,0.36,,,0.19,Wunderground v.1.15,2013-07-27 07:49:00,
2013-07-27 03:59:00,63.6,61.5,29.94,WSW,238,0.0,1.0,93,0.22,,,0.23,Wunderground v.1.15,2013-07-27 07:59:00,
2013-07-27 04:08:00,63.6,61.5,29.94,WSW,238,0.0,0.0,93,0.15,,,0.25,Wunderground v.1.15,2013-07-27 08:08:00,
2013-07-27 04:18:00,63.6,61.5,29.94,WSW,238,0.0,0.0,93,0.08,,,0.26,Wunderground v.1.15,2013-07-27 08:18:00,
2013-07-27 04:28:00,63.5,61.7,29.93,WSW,238,1.0,1.0,94,0.06,,,0.27,Wunderground v.1.15,2013-07-27 08:28:00,
2013-07-27 04:38:00,63.5,61.7,29.93,WSW,238,1.0,1.0,94,0.10,,,0.29,Wunderground v.1.15,2013-07-27 08:38:00,
2013-07-27 04:49:00,63.6,61.8,29.93,WSW,238,1.0,1.0,94,0.16,,,0.32,Wunderground v.1.15,2013-07-27 08:49:00,
2013-07-27 04:59:00,63.6,61.8,29.93,WSW,238,0.0,0.0,94,0.06,,,0.33,Wunderground v.1.15,2013-07-27 08:59:00,
2013-07-27 05:08:00,63.6,61.8,29.92,WSW,238,0.0,1.0,94,0.05,,,0.33,Wunderground v.1.15,2013-07-27 09:08:00,
2013-07-27 05:18:00,63.6,61.8,29.92,WSW,238,0.0,2.0,94,0.00,,,0.33,Wunderground v.1.15,2013-07-27 09:18:00,
2013-07-27 05:29:00,63.6,61.8,29.92,WSW,238,1.0,1.0,94,0.00,,,0.33,Wunderground v.1.15,2013-07-27 09:29:00,
2013-07-27 05:39:00,63.6,61.8,29.92,WSW,238,0.0,0.0,94,0.00,,,0.33,Wunderground v.1.15,2013-07-27 09:39:00,
2013-07-27 05:49:00,63.5,61.7,29.92,WSW,238,0.0,0.0,94,0.00,,,0.33,Wunderground v.1.15,2013-07-27 09:49:00,
2013-07-27 05:59:00,63.5,61.7,29.92,WSW,238,0.0,0.0,94,0.00,,,0.34,Wunderground v.1.15,2013-07-27 09:59:00,
2013-07-27 06:09:00,63.4,61.6,29.92,WSW,238,0.0,0.0,94,0.09,,,0.35,Wunderground v.1.15,2013-07-27 10:09:00,
2013-07-27 06:18:00,63.3,61.5,29.92,WSW,238,0.0,0.0,94,0.05,,,0.36,Wunderground v.1.15,2013-07-27 10:18:00,
2013-07-27 06:29:00,63.3,61.5,29.92,WSW,238,0.0,0.0,94,0.04,,,0.36,Wunderground v.1.15,2013-07-27 10:29:00,
2013-07-27 06:38:00,63.2,61.4,29.92,WSW,238,0.0,1.0,94,0.04,,,0.37,Wunderground v.1.15,2013-07-27 10:38:00,
2013-07-27 06:48:00,63.1,61.3,29.92,South,172,0.0,0.0,94,0.04,,,0.38,Wunderground v.1.15,2013-07-27 10:48:00,
2013-07-27 06:59:00,63.1,61.3,29.92,South,172,0.0,0.0,94,0.04,,,0.38,Wunderground v.1.15,2013-07-27 10:59:00,
2013-07-27 07:09:00,63.1,61.6,29.92,South,172,0.0,0.0,95,0.04,,,0.39,Wunderground v.1.15,2013-07-27 11:09:00,
2013-07-27 07:19:00,63.1,61.6,29.92,South,172,0.0,0.0,95,0.13,,,0.41,Wunderground v.1.15,2013-07-27 11:19:00,
2013-07-27 07:28:00,63.1,61.6,29.92,East,94,0.0,0.0,95,0.05,,,0.41,Wunderground v.1.15,2013-07-27 11:28:00,
2013-07-27 07:38:00,63.0,61.5,29.92,West,263,1.0,1.0,95,0.00,,,0.42,Wunderground v.1.15,2013-07-27 11:38:00,
2013-07-27 07:48:00,62.9,61.4,29.92,West,263,1.0,3.0,95,0.32,,,0.46,Wunderground v.1.15,2013-07-27 11:48:00,
2013-07-27 07:59:00,62.9,61.4,29.92,WSW,243,0.0,1.0,95,0.19,,,0.50,Wunderground v.1.15,2013-07-27 11:59:00,
2013-07-27 08:08:00,62.9,61.4,29.92,WSW,243,0.0,1.0,95,0.22,,,0.54,Wunderground v.1.15,2013-07-27 12:08:00,
2013-07-27 08:23:00,62.9,61.4,29.93,WSW,248,1.0,1.0,95,1.10,,,0.87,Wunderground v.1.15,2013-07-27 12:23:00,
2013-07-27 08:28:00,62.8,61.3,29.92,WSW,248,2.0,2.0,95,0.63,,,0.95,Wunderground v.1.15,2013-07-27 12:28:00,
2013-07-27 08:39:00,62.9,61.4,29.92,WSW,248,1.0,1.0,95,0.26,,,1.03,Wunderground v.1.15,2013-07-27 12:39:00,
2013-07-27 08:49:00,62.9,61.4,29.92,WSW,248,1.0,1.0,95,0.08,,,1.05,Wunderground v.1.15,2013-07-27 12:49:00,
2013-07-27 08:59:00,63.0,61.5,29.92,WSW,249,0.0,0.0,95,0.13,,,1.07,Wunderground v.1.15,2013-07-27 12:59:00,
2013-07-27 09:08:00,63.1,61.6,29.92,WSW,249,0.0,0.0,95,0.05,,,1.07,Wunderground v.1.15,2013-07-27 13:08:00,
2013-07-27 09:18:00,63.2,61.7,29.92,WSW,241,0.0,0.0,95,0.04,,,1.08,Wunderground v.1.15,2013-07-27 13:18:00,
2013-07-27 09:29:00,63.5,62.0,29.92,SSW,198,2.0,2.0,95,0.07,,,1.09,Wunderground v.1.15,2013-07-27 13:29:00,
2013-07-27 09:38:00,63.8,62.3,29.92,WSW,238,3.0,5.0,95,0.06,,,1.10,Wunderground v.1.15,2013-07-27 13:38:00,
2013-07-27 09:49:00,64.0,62.5,29.92,WSW,237,3.0,3.0,95,0.00,,,1.10,Wunderground v.1.15,2013-07-27 13:49:00,
2013-07-27 09:59:00,64.3,62.8,29.92,WNW,298,3.0,3.0,95,0.00,,,1.10,Wunderground v.1.15,2013-07-27 13:59:00,
2013-07-27 10:08:00,64.4,62.9,29.91,SSW,213,3.0,3.0,95,0.00,,,1.10,Wunderground v.1.15,2013-07-27 14:08:00,
2013-07-27 10:19:00,64.3,62.8,29.91,SW,217,3.0,3.0,95,0.00,,,1.11,Wunderground v.1.15,2013-07-27 14:19:00,
2013-07-27 10:29:00,64.2,62.7,29.92,South,182,3.0,3.0,95,0.00,,,1.11,Wunderground v.1.15,2013-07-27 14:29:00,
2013-07-27 10:39:00,64.1,62.6,29.91,SSW,198,4.0,4.0,95,0.00,,,1.12,Wunderground v.1.15,2013-07-27 14:39:00,
2013-07-27 10:48:00,64.1,62.6,29.91,WSW,244,3.0,5.0,95,0.00,,,1.12,Wunderground v.1.15,2013-07-27 14:48:00,
2013-07-27 10:59:00,64.2,62.7,29.91,WSW,248,3.0,3.0,95,0.00,,,1.13,Wunderground v.1.15,2013-07-27 14:59:00,
2013-07-27 11:08:00,64.2,62.7,29.90,WSW,238,3.0,3.0,95,0.00,,,1.13,Wunderground v.1.15,2013-07-27 15:08:00,
2013-07-27 11:18:00,64.4,62.9,29.91,WSW,245,2.0,2.0,95,0.00,,,1.13,Wunderground v.1.15,2013-07-27 15:18:00,
2013-07-27 11:29:00,64.3,62.8,29.91,SSW,212,3.0,3.0,95,0.00,,,1.13,Wunderground v.1.15,2013-07-27 15:29:00,
2013-07-27 11:39:00,64.4,62.9,29.91,SSW,197,4.0,4.0,95,0.00,,,1.13,Wunderground v.1.15,2013-07-27 15:39:00,
2013-07-27 11:48:00,64.5,63.0,29.91,SW,232,4.0,5.0,95,0.00,,,1.13,Wunderground v.1.15,2013-07-27 15:48:00,
2013-07-27 11:58:00,64.9,63.4,29.91,West,261,4.0,8.0,95,0.00,,,1.13,Wunderground v.1.15,2013-07-27 15:58:00,
2013-07-27 12:04:00,64.8,63.3,29.91,SW,223,5.0,8.0,95,0.00,,,1.13,Wunderground v.1.15,2013-07-27 16:04:00,
2013-07-27 12:19:00,65.0,63.2,29.91,West,262,3.0,3.0,94,0.00,,,1.13,Wunderground v.1.15,2013-07-27 16:19:00,
2013-07-27 12:29:00,65.2,63.4,29.90,WSW,238,4.0,4.0,94,0.00,,,1.13,Wunderground v.1.15,2013-07-27 16:29:00,
2013-07-27 12:39:00,65.3,63.5,29.91,WNW,282,3.0,3.0,94,0.00,,,1.13,Wunderground v.1.15,2013-07-27 16:39:00,
2013-07-27 12:49:00,65.9,64.1,29.90,SW,236,2.0,2.0,94,0.00,,,1.13,Wunderground v.1.15,2013-07-27 16:49:00,
2013-07-27 12:54:00,66.9,65.4,29.90,West,266,2.0,4.0,95,0.00,,,1.13,Wunderground v.1.15,2013-07-27 16:54:00,
2013-07-27 13:08:00,67.4,64.7,29.89,WSW,253,3.0,3.0,91,0.00,,,1.13,Wunderground v.1.15,2013-07-27 17:08:00,
2013-07-27 13:18:00,69.1,65.4,29.89,SW,225,5.0,7.0,88,0.00,,,1.13,Wunderground v.1.15,2013-07-27 17:18:00,
2013-07-27 13:29:00,70.1,64.7,29.89,SW,230,6.0,6.0,83,0.00,,,1.13,Wunderground v.1.15,2013-07-27 17:29:00,
2013-07-27 13:39:00,70.5,64.7,29.89,SSE,150,4.0,6.0,82,0.00,,,1.13,Wunderground v.1.15,2013-07-27 17:39:00,
2013-07-27 13:49:00,71.0,64.2,29.89,SSW,198,6.0,12.0,79,0.00,,,1.13,Wunderground v.1.15,2013-07-27 17:49:00,
2013-07-27 13:58:00,71.5,63.9,29.89,WSW,238,6.0,6.0,77,0.00,,,1.13,Wunderground v.1.15,2013-07-27 17:58:00,
2013-07-27 14:09:00,72.2,63.4,29.89,WSW,252,5.0,5.0,74,0.00,,,1.13,Wunderground v.1.15,2013-07-27 18:09:00,
2013-07-27 14:18:00,72.2,62.7,29.89,West,275,4.0,4.0,72,0.00,,,1.13,Wunderground v.1.15,2013-07-27 18:18:00,
2013-07-27 14:29:00,72.6,63.1,29.88,WSW,252,5.0,5.0,72,0.00,,,1.13,Wunderground v.1.15,2013-07-27 18:29:00,
2013-07-27 14:34:00,72.6,62.7,29.88,West,279,5.0,5.0,71,0.00,,,1.13,Wunderground v.1.15,2013-07-27 18:34:00,
2013-07-27 14:48:00,72.5,63.0,29.88,WSW,248,5.0,5.0,72,0.00,,,1.13,Wunderground v.1.15,2013-07-27 18:48:00,
2013-07-27 14:58:00,73.3,61.7,29.88,SSW,207,5.0,8.0,67,0.00,,,1.13,Wunderground v.1.15,2013-07-27 18:58:00,
2013-07-27 15:09:00,73.8,63.4,29.87,SSW,212,4.0,4.0,70,0.00,,,1.13,Wunderground v.1.15,2013-07-27 19:09:00,
2013-07-27 15:19:00,74.4,61.0,29.87,West,277,5.0,8.0,63,0.00,,,1.13,Wunderground v.1.15,2013-07-27 19:19:00,
2013-07-27 15:29:00,74.0,61.5,29.87,West,276,6.0,6.0,65,0.00,,,1.13,Wunderground v.1.15,2013-07-27 19:29:00,
2013-07-27 15:38:00,73.8,60.9,29.87,NW,324,5.0,5.0,64,0.00,,,1.13,Wunderground v.1.15,2013-07-27 19:38:00,
2013-07-27 15:49:00,73.4,62.6,29.87,NE,53,6.0,6.0,69,0.00,,,1.13,Wunderground v.1.15,2013-07-27 19:49:00,
2013-07-27 15:59:00,74.4,61.4,29.86,SW,221,4.0,4.0,64,0.00,,,1.13,Wunderground v.1.15,2013-07-27 19:59:00,
2013-07-27 16:04:00,74.8,61.4,29.86,West,265,4.0,6.0,63,0.00,,,1.13,Wunderground v.1.15,2013-07-27 20:04:00,
2013-07-27 16:19:00,74.6,59.3,29.86,West,277,5.0,8.0,59,0.00,,,1.13,Wunderground v.1.15,2013-07-27 20:19:00,
2013-07-27 16:29:00,74.6,58.8,29.86,SW,236,5.0,6.0,58,0.00,,,1.13,Wunderground v.1.15,2013-07-27 20:29:00,
2013-07-27 16:34:00,74.6,59.8,29.86,West,271,5.0,6.0,60,0.00,,,1.13,Wunderground v.1.15,2013-07-27 20:34:00,
2013-07-27 16:48:00,74.6,58.8,29.86,WSW,248,5.0,9.0,58,0.00,,,1.13,Wunderground v.1.15,2013-07-27 20:48:00,
2013-07-27 17:09:00,74.6,58.4,29.86,WSW,253,5.0,5.0,57,0.00,,,1.13,Wunderground v.1.15,2013-07-27 21:09:00,
2013-07-27 17:14:00,74.8,59.0,29.86,West,261,4.0,5.0,58,0.00,,,1.13,Wunderground v.1.15,2013-07-27 21:14:00,
2013-07-27 17:29:00,74.7,58.9,29.86,SW,234,4.0,4.0,58,0.00,,,1.13,Wunderground v.1.15,2013-07-27 21:29:00,
2013-07-27 17:39:00,74.7,58.0,29.86,WSW,252,5.0,6.0,56,0.00,,,1.13,Wunderground v.1.15,2013-07-27 21:39:00,
2013-07-27 17:49:00,74.5,59.2,29.86,West,275,4.0,4.0,59,0.00,,,1.13,Wunderground v.1.15,2013-07-27 21:49:00,
2013-07-27 17:59:00,74.3,58.6,29.86,West,262,4.0,4.0,58,0.00,,,1.13,Wunderground v.1.15,2013-07-27 21:59:00,
2013-07-27 18:08:00,74.1,58.9,29.86,West,260,5.0,9.0,59,0.00,,,1.13,Wunderground v.1.15,2013-07-27 22:08:00,
2013-07-27 18:19:00,73.7,58.5,29.86,West,263,3.0,3.0,59,0.00,,,1.13,Wunderground v.1.15,2013-07-27 22:19:00,
2013-07-27 18:29:00,74.0,58.8,29.86,SSW,209,4.0,4.0,59,0.00,,,1.13,Wunderground v.1.15,2013-07-27 22:29:00,
2013-07-27 18:39:00,72.8,58.6,29.86,West,280,4.0,5.0,61,0.00,,,1.13,Wunderground v.1.15,2013-07-27 22:39:00,
2013-07-27 18:49:00,73.0,60.1,29.86,West,271,2.0,2.0,64,0.00,,,1.13,Wunderground v.1.15,2013-07-27 22:49:00,
2013-07-27 18:59:00,73.1,59.8,29.86,West,259,3.0,3.0,63,0.00,,,1.13,Wunderground v.1.15,2013-07-27 22:59:00,
2013-07-27 19:09:00,71.6,59.6,29.86,West,273,3.0,3.0,66,0.00,,,1.13,Wunderground v.1.15,2013-07-27 23:09:00,
2013-07-27 19:19:00,71.7,60.6,29.86,WSW,255,2.0,2.0,68,0.00,,,1.13,Wunderground v.1.15,2013-07-27 23:19:00,
2013-07-27 19:28:00,72.2,60.2,29.86,West,281,3.0,3.0,66,0.00,,,1.13,Wunderground v.1.15,2013-07-27 23:28:00,
2013-07-27 19:39:00,71.6,60.5,29.86,WNW,287,1.0,3.0,68,0.00,,,1.13,Wunderground v.1.15,2013-07-27 23:39:00,
2013-07-27 19:44:00,71.7,61.0,29.86,WNW,287,1.0,3.0,69,0.00,,,1.13,Wunderground v.1.15,2013-07-27 23:44:00,
2013-07-27 19:59:00,71.4,60.3,29.87,West,275,1.0,1.0,68,0.00,,,1.13,Wunderground v.1.15,2013-07-27 23:59:00,
2013-07-27 20:09:00,71.1,59.6,29.87,WSW,240,1.0,1.0,67,0.00,,,1.13,Wunderground v.1.15,2013-07-28 00:09:00,
2013-07-27 20:18:00,70.5,60.2,29.87,WSW,241,1.0,1.0,70,0.00,,,1.13,Wunderground v.1.15,2013-07-28 00:18:00,
2013-07-27 20:29:00,69.5,59.7,29.88,SW,236,1.0,1.0,71,0.00,,,1.13,Wunderground v.1.15,2013-07-28 00:29:00,
2013-07-27 20:39:00,68.7,60.1,29.88,SSW,211,0.0,0.0,74,0.00,,,1.13,Wunderground v.1.15,2013-07-28 00:39:00,
2013-07-27 20:49:00,67.8,59.2,29.88,SSW,210,0.0,0.0,74,0.00,,,1.13,Wunderground v.1.15,2013-07-28 00:49:00,
2013-07-27 20:58:00,67.2,59.0,29.88,SSW,210,0.0,0.0,75,0.00,,,1.13,Wunderground v.1.15,2013-07-28 00:58:00,
2013-07-27 21:09:00,66.7,58.9,29.88,SSW,210,0.0,0.0,76,0.00,,,1.13,Wunderground v.1.15,2013-07-28 01:09:00,
2013-07-27 21:19:00,66.2,58.4,29.89,SSW,210,0.0,0.0,76,0.00,,,1.13,Wunderground v.1.15,2013-07-28 01:19:00,
2013-07-27 21:24:00,65.8,58.4,29.89,SSW,210,0.0,0.0,77,0.00,,,1.13,Wunderground v.1.15,2013-07-28 01:24:00,
2013-07-27 21:39:00,64.9,58.2,29.90,SSW,210,0.0,0.0,79,0.00,,,1.13,Wunderground v.1.15,2013-07-28 01:39:00,
2013-07-27 21:49:00,64.4,57.4,29.90,SSW,211,0.0,0.0,78,0.00,,,1.13,Wunderground v.1.15,2013-07-28 01:49:00,
2013-07-27 21:59:00,64.3,56.9,29.90,SSW,211,0.0,0.0,77,0.00,,,1.13,Wunderground v.1.15,2013-07-28 01:59:00,
2013-07-27 22:09:00,64.3,56.6,29.91,NW,315,0.0,2.0,76,0.00,,,1.13,Wunderground v.1.15,2013-07-28 02:09:00,
2013-07-27 22:19:00,64.2,56.5,29.91,WNW,294,1.0,1.0,76,0.00,,,1.13,Wunderground v.1.15,2013-07-28 02:19:00,
2013-07-27 22:24:00,64.1,56.4,29.91,WNW,289,1.0,3.0,76,0.00,,,1.13,Wunderground v.1.15,2013-07-28 02:24:00,
2013-07-27 22:39:00,63.7,56.0,29.92,WNW,290,1.0,1.0,76,0.00,,,1.13,Wunderground v.1.15,2013-07-28 02:39:00,
2013-07-27 22:49:00,63.5,55.8,29.92,WNW,290,1.0,1.0,76,0.00,,,1.13,Wunderground v.1.15,2013-07-28 02:49:00,
2013-07-27 22:54:00,63.2,55.5,29.92,WNW,290,0.0,1.0,76,0.00,,,1.13,Wunderground v.1.15,2013-07-28 02:54:00,
2013-07-27 23:09:00,62.7,55.4,29.92,WNW,290,0.0,0.0,77,0.00,,,1.13,Wunderground v.1.15,2013-07-28 03:09:00,
2013-07-27 23:19:00,62.3,55.4,29.92,WNW,290,0.0,0.0,78,0.00,,,1.13,Wunderground v.1.15,2013-07-28 03:19:00,
2013-07-27 23:29:00,61.8,55.2,29.92,WNW,290,0.0,1.0,79,0.00,,,1.13,Wunderground v.1.15,2013-07-28 03:29:00,
2013-07-27 23:34:00,61.7,55.1,29.92,WNW,290,0.0,1.0,79,0.00,,,1.13,Wunderground v.1.15,2013-07-28 03:34:00,
2013-07-27 23:49:00,61.3,55.1,29.93,WNW,290,1.0,1.0,80,0.00,,,1.13,Wunderground v.1.15,2013-07-28 03:49:00,
2013-07-27 23:54:00,61.2,55.0,29.93,WNW,290,0.0,2.0,80,0.00,,,1.13,Wunderground v.1.15,2013-07-28 03:54:00,